AirNav   Duncan Aviation - Near you to keep you flying
 
 1713 users online  

8MO0 Barnes Jewish St Peters Hospital Heliport
St Peters, Missouri, USA

GOING TO ST PETERS?


FAA INFORMATION EFFECTIVE 21 APRIL 2022

Location

FAA Identifier: 8MO0
Lat/Long: 38-47-38.2100N 090-34-51.5200W
38-47.636833N 090-34.858667W
38.7939472,-90.5809778
(estimated)
Elevation: 513 ft. / 156 m (estimated)
Variation: 02E (1985)
From city: 1 mile E of ST PETERS, MO
Time zone: UTC -5 (UTC -6 during Standard Time)
Zip code: 63376

Heliport Operations

Heliport use: Private use, MEDICAL USE.
Activation date: 08/1991
Control tower: no
ARTCC: KANSAS CITY CENTER
FSS: SAINT LOUIS FLIGHT SERVICE STATION
Attendance: CONTINUOUS
Wind indicator: yes
Segmented circle: no
Lights: FOR FLOOD LGTS CALL 636-916-9000.

Heliport Communications

WX ASOS at SUS (9 nm SW): 134.8 (314-890-7255)
WX ASOS at STL (10 nm E): PHONE 314-890-4790
WX ASOS at SET (11 nm NE): 118.075 (636-250-4590)

Nearby radio navigation aids

VOR radial/distance  VOR name  Freq  Var
STLr228/6.1ST LOUIS VORTAC117.4001E
FTZr067/19.2FORISTELL VORTAC110.8005E
TOYr272/31.2TROY VORTAC116.0004E

 
NDB name  Hdg/Dist  Freq  Var  ID
EAVES348/7.222701WFZ ..-. --..
SNOOP044/12.732601WSU ... ..-
CIVIC MEMORIAL257/25.226301WCVM -.-. ...- --

Heliport Services

Runway Information

Helipad H1

Dimensions: 50 x 50 ft. / 15 x 15 m
Surface: concrete
Runway edge lights: FLD
Latitude: 38-47.636833N
Longitude: 090-34.858667W
Elevation: 513.0 ft.
Traffic pattern: leftleft

Heliport Ownership and Management from official FAA records

Ownership: Privately-owned
Owner: BARNES-JEWISH ST PETERS HOSPITAL
10 HOSPITAL DR
ST PETERS, MO 63376
Phone 636-916-9000
Manager: TERRY BANISTER
10 HOSPITAL DR
ST PETERS, MO 63376
Phone 636-916-9424
TERRY BANISTER 636-916-9242.

Additional Remarks

FOR CD CTC ST LOUIS APCH AT 314-890-1018.

Instrument Procedures

There are no published instrument procedures at 8MO0.

Some nearby airports with instrument procedures:

1H0 - Creve Coeur Airport (5 nm SE)
KSUS - Spirit of St Louis Airport (9 nm SW)
KSTL - St Louis Lambert International Airport (10 nm E)
KSET - St Charles County Smartt Airport (11 nm NE)
KFYG - Washington Regional Airport (23 nm SW)
 
Loc | Ops | Rwys | IFR | FBO | Links
Com | Nav | Svcs | Stats | Notes
Area around 8MO0 (Barnes Jewish St Peters Hospital Heliport)
 
Road maps at: MapQuest Bing Google
 
Aerial photo
No photo
 
Sectional chart

 
Airport distance calculator
Flying to Barnes Jewish St Peters Hospital Heliport? Find the distance to fly.

From to 8MO0

Sunrise and sunset
Times for 18-May-2022
 Local
(UTC-5)
 Zulu
(UTC)
Morning civil twilight05:1810:18
Sunrise05:4810:48
Sunset20:0901:09
Evening civil twilight20:3901:39

Current date and time
Zulu (UTC)  18-May-2022 16:22:09
Local (UTC-5)  18-May-2022 11:22:09
 
METAR
KSUS 
9nm S 
181554Z 26010KT 6SM HZ BKN018 BKN045 OVC060 22/18 A2979 RMK AO2 RAE1456B20E37 SLP080 P0000 T02170183
KSTL 
10nm E 
181551Z 24006KT 10SM -RA OVC016 19/17 A2980 RMK AO2 RAB1459 SLP082 P0002 T01940167 $
KSET 
11nm NE 
181554Z AUTO 23007KT 6SM -RA OVC017 19/16 A2979 RMK AO2 SLP084 P0002 T01890161
TAF
KSUS 
9nm S 
181134Z 1812/1912 20008KT P6SM -SHRA OVC050 FM181400 21008KT P6SM OVC040 TEMPO 1815/1818 BKN025 FM181800 26008KT P6SM BKN040 FM190000 VRB03KT P6SM BKN250 TEMPO 1908/1912 5SM BR
KSTL 
10nm E 
181134Z 1812/1918 20010KT P6SM -SHRA OVC050 FM181400 22010KT P6SM OVC040 TEMPO 1815/1818 BKN025 FM181800 26009KT P6SM BKN040 FM190000 VRB04KT P6SM BKN250
NOTAMs
Click for the latest NOTAMs
NOTAMs are issued by the DoD/FAA and will open in a separate window not controlled by AirNav.

 

 
 

Would you like to see your business listed on this page?

 If your business provides an interesting product or service to pilots, flight crews, aircraft, or users of the Barnes Jewish St Peters Hospital Heliport, you should consider listing it here.  To start the listing process, click on the button below
 
Add a business
 

Other Pages about Barnes Jewish St Peters Hospital Heliport

Update a link
 
Copyright © AirNav, LLC. All rights reserved. Privacy Policy  Contact